Weather in Bolshoy Roy

Russia / Kirov Oblast     56°51′42″N   50°23′27″E
temp.,
°C
wind,
m/s
gust,
m/s
humid.,
%
clouds,
%
prec.,
mm/h
press.,
hPa
HPBL,
m
26 february, fri
fri2600:00−20se5109590 0.0 1020341
03:00−21se399792 0.1 1020204
06:00−21se4996100 0.0 1019273
09:00−20se599594 0.0 1019356
12:00−17sse61092100 0.0 1018474
15:00−15se71291100 0.1 1016586
18:00−16se71392100 0.1 1013629
21:00−17se81591100 0.1 1008581
27 february, sat
sat2700:00−16se81595100 1.8 1004667
03:00−15se71394100 3.9 1002690
06:00−14ese61294100 0.9 1000581
09:00−12e61094100 2.4 1000585
12:00−11e6993100 1.0 1000608
15:00−10ene5993100 1.7 1001634
18:00−11ne5994100 0.4 1003453
21:00−12ne499493 0.6 1004357
28 february, sun
sun2800:00−14nne499490 0.2 1005310
03:00−17nne479688 0.3 1007247
06:00−21n469865 0.0 1009119
09:00−20nne479535 0.0 1010260
12:00−16n469168 0.0 1011418
15:00−15n579184 0.0 1012505
18:00−19n3497100 0.0 101477
21:00−20n339987 0.0 101739
1 march, mon
mon100:00−21n33981 0.0 101833
03:00−23n23981 0.0 102021
06:00−23n23981 0.0 102120
09:00−20nnw22952 0.0 1022117
12:00−15wnw118873 0.0 1022245
15:00−13w238772 0.0 1021303
18:00−18ssw239517 0.0 102020
21:00−19ssw349721 0.0 101984
2 march, tue
tue200:00−20ssw499637 0.0 1016156
03:00−17s6119559 0.0 1013281
06:00−15s61195100 0.3 1009331
09:00−13s61195100 1.4 1005420
12:00−10s61094100 1.4 1003480
15:00−8s5993100 2.0 1002425
18:00−8sse4795100 0.5 1001227
21:00−10se2396100 0.7 100231